Weather Roundup
Issued by NWS Corpus Christi, TX

Home | Current Version | Previous Version | Text Only | Print | Product List | Glossary On
Versions: 1 2 3 4 5 6 7 8 9 10 11 12 13 14 15 16 17 18 19 20 21 22 23 24 25 26 27 28 29 30 31 32 33 34 35 36 37 38 39 40 41 42 43 44 45 46 47 48 49 50
000
ASUS44 KCRP 171710
HRRCRP

SOUTH TEXAS REGIONAL WEATHER ROUNDUP
NATIONAL WEATHER SERVICE CORPUS CHRISTI TX
1100 AM CST SUN DEC 17 2017


TXZ229>244-171800-
...CORPUS CHRISTI AREA OBSERVATIONS...

CITY           SKY/WX    TMP DP  RH WIND       PRES   REMARKS
CORPUS CHRISTI CLOUDY    53  50  89 NE3       30.13S
NAS CORPUS CHR CLOUDY    54  52  93 N7        30.14R FOG
ROCKPORT       CLOUDY    52  50  93 NE5       30.14R
KINGSVILLE ARP CLOUDY    53  53 100 CALM      30.16R
KINGSVILLE NAS CLOUDY    53  52  96 NE5       30.15R
ALICE          CLOUDY    51  48  89 NW3       30.14R
$$

...VICTORIA AREA OBSERVATIONS...

CITY           SKY/WX    TMP DP  RH WIND       PRES   REMARKS
PORT LAVACA    CLOUDY    52  51  93 N8        30.12S
VICTORIA       CLOUDY    53  49  86 VRB3      30.13R
BEEVILLE       CLOUDY    50  49  97 N6        30.14S
PLEASANTON     CLOUDY    49  48  95 CALM      30.15F
SAN ANTONIO    DRIZZLE   48  46  93 W8        30.14S FOG
$$

...LAREDO AREA OBSERVATIONS...

CITY           SKY/WX    TMP DP  RH WIND       PRES   REMARKS
LAREDO         CLOUDY    50  48  93 SW6       30.13F
COTULLA        CLOUDY    50  47  89 CALM      30.13F
DEL RIO        CLOUDY    46  45  96 SE6       30.13R
MCALLEN        CLOUDY    54  50  86 N7        30.14R
HEBBRONVILLE   CLOUDY    48  47  99 CALM      30.13F FOG
$$

...OTHER TEXAS OBSERVATIONS...

CITY           SKY/WX    TMP DP  RH WIND       PRES   REMARKS
BROWNSVILLE    CLOUDY    60  54  80 N7        30.12S
HOUSTON        FOG       51  51 100 CALM      30.11S VSB<1/4
COL. STATION   FOG       46  46 100 CALM      30.12F VSB 3/4
AUSTIN         CLOUDY    49  47  93 S7        30.14R FOG
WACO           CLOUDY    48  46  93 S12       30.11R
FORT WORTH     CLOUDY    49  45  86 S9        30.07S
WICHITA FALLS  CLOUDY    51  42  71 S8        30.04R
LUBBOCK        MOSUNNY   43  27  53 N10       30.02R
EL PASO        CLOUDY    47  35  63 CALM      30.02R
$$

...MARINE OBSERVATIONS...

STATION/POSITION TIME  SKY/WX   TEMP    WIND        PRES    VSBY  WAVE   SWELL
                                AIR SEA DIR/SP/G                  HT/PER HT/PER
                 (UTC)          (F)     (DEG/KT/KT) (MB)    (MI)  (FT/S) (FT/S)
PORT ARANSAS     NOT AVBL
BUOY 90 E PORT A 1550            64 71   10/ 10/ 10 1019.2          4/ 6   3/ 6
BUOY 200 E PT IS 1550            74 76  350/ 10/ 12 1018.9          5/ 7   5/ 7
BUOY 15 E GALVES 1550            57 61  330/  6/  8 1019.9          4/ 7   3/ 7
$$



USA.gov is the U.S. government's official web portal to all federal, state and local government web resources and services.